Location: Caltech
(34.1382°N, 118.1253°W)
Time: 16:42:51
(UTC-07:00)

Courier 1B - Visible Passes

Search period start: 29 June 2016 00:00
Search period end: 09 July 2016 00:00
Orbit: 963 x 1209 km, 28.3° (Epoch: 28 June)

Date Brightness Start Highest point End Pass type
(mag) Time Alt. Az. Time Alt. Az. Time Alt. Az.
29 Jun 8.6 02:28:54 35° SE 02:28:54 35° SE 02:34:09 10° E visible
29 Jun 8.0 04:15:47 19° WSW 04:21:07 56° S 04:28:41 10° ESE visible
30 Jun 9.6 01:38:18 16° ESE 01:38:18 16° ESE 01:39:58 10° E visible
30 Jun 7.9 03:25:11 42° SW 03:27:16 53° S 03:34:41 10° E visible
30 Jun 8.2 05:14:01 10° W 05:21:17 53° S 05:28:51 10° ESE visible
01 Jul 8.2 02:34:38 45° SE 02:34:38 45° SE 02:40:40 10° E visible
01 Jul 8.0 04:21:31 16° WSW 04:27:26 55° S 04:34:57 10° ESE visible
02 Jul 9.3 01:44:08 21° ESE 01:44:08 21° ESE 01:46:37 10° E visible
02 Jul 7.9 03:31:01 38° SW 03:33:36 56° S 03:41:01 10° ESE visible
03 Jul 7.9 02:40:38 52° SSE 02:40:38 52° SSE 02:47:03 10° E visible
03 Jul 8.1 04:27:31 13° W 04:33:44 49° S 04:41:05 10° ESE visible
04 Jul 9.2 01:50:20 23° ESE 01:50:20 23° ESE 01:53:04 10° E visible
04 Jul 7.9 03:37:14 36° WSW 03:39:56 52° S 03:47:14 10° ESE visible
05 Jul 7.9 02:47:06 51° SSE 02:47:06 51° SSE 02:53:20 10° ESE visible
05 Jul 8.3 04:34:01 13° W 04:40:00 38° SSW 04:46:56 10° SE visible
06 Jul 9.3 01:57:09 21° ESE 01:57:09 21° ESE 01:59:25 10° ESE visible
06 Jul 8.0 03:44:05 35° SW 03:46:14 43° SSW 03:53:16 10° SE visible
06 Jul 9.1 21:09:14 10° S 21:11:43 13° SSE 21:11:43 13° SSE visible
07 Jul 8.3 02:54:21 40° SSE 02:54:21 40° SSE 02:59:29 10° ESE visible
07 Jul 8.7 04:41:19 14° WSW 04:46:11 27° SSW 04:52:20 10° SSE visible
07 Jul 8.7 22:06:11 10° SW 22:09:28 23° S 22:09:28 23° S visible
08 Jul 9.7 02:04:51 14° ESE 02:04:51 14° ESE 02:05:40 10° ESE visible
08 Jul 8.3 03:51:49 32° SSW 03:52:29 33° SSW 03:58:56 10° SE visible
08 Jul 8.6 21:13:16 10° SSW 21:17:59 21° SSE 21:20:05 18° SE visible
08 Jul 9.1 23:05:15 10° WSW 23:07:02 19° SW 23:07:02 19° SW visible
